Tamatave, Madagascar

12:36 PM EAT on May 26, 2017 (GMT +0300)
Tamatave

Weather History for FMMT - February, 2013

Change the Weather History Date:

Tuesday, February 5, 2013

  Actual Average Record
Temperature  
Mean Temperature 84 °F -  
Max Temperature 92 °F 87 °F 90 °F (2014)
Min Temperature 76 °F 73 °F 72 °F (2014)
Cooling Degree Days 19    
Growing Degree Days 34 (Base 50)    
Moisture  
Dew Point 79 °F    
Average Humidity 86    
Maximum Humidity 96    
Minimum Humidity 74    
Precipitation  
Precipitation 0.12 in 0.52 in - ()
Sea Level Pressure  
Sea Level Pressure 29.84 in    
Wind  
Wind Speed 3 mph ()    
Max Wind Speed 18 mph    
Max Gust Speed -    
Visibility 7.0 miles    
Events Thunderstorm    
Averages and records for this station are not official NWS values.
T = Trace of Precipitation, MM = Missing Value Source: Averaged Metar Reports

Daily Weather History Graph

Daily Weather History Graph

Search for Another Location

Airport or City:

Trip Planner

Search our weather history database for the weather conditions in past years. The results will help you decide how hot, cold, wet, or windy it might be!

Date:

Astronomy

Feb. 05, 2013 Rise Set
Actual Time 5:31 AM EAT 6:21 PM EAT
Civil Twilight 5:08 AM EAT 6:44 PM EAT
Nautical Twilight 4:41 AM EAT 7:10 PM EAT
Astronomical Twilight 4:14 AM EAT 7:38 PM EAT
Moon 12:21 AM EAT (2/5) 1:47 PM EAT (2/5)
Length of Visible Light 13h 35m
Length of Day
12h 49m
Waning Crescent, 30% of the Moon is Illuminated
Feb 5
Waning Crescent
Feb 10
New
Feb 17
First Quarter
Feb 25
Full
Mar 5
Last Quarter

Hourly Weather History & Observations

Time (EAT) Temp. Heat Index Dew Point Humidity Pressure Visibility Wind Dir Wind Speed Gust Speed Precip Events Conditions
12:00 AM 80.6 °F 88.1 °F 78.8 °F 94% 29.86 in 6.2 mi Calm Calm - N/A   Mostly Cloudy
1:00 AM 80.6 °F 88.1 °F 78.8 °F 94% 29.86 in 6.2 mi Calm Calm - N/A   Mostly Cloudy
2:00 AM 80.6 °F 88.1 °F 78.8 °F 94% 29.86 in 6.2 mi Calm Calm - N/A   Mostly Cloudy
3:00 AM 78 °F - 77 °F 96% 29.83 in 16 mi Calm Calm - -   Mostly Cloudy
3:00 AM 78.8 °F - 77.0 °F 94% 29.83 in 6.2 mi Calm Calm - N/A   Mostly Cloudy
4:00 AM 78.8 °F - 77.0 °F 94% 29.83 in 6.2 mi Calm Calm - N/A   Mostly Cloudy
5:00 AM 78.8 °F - 77.0 °F 94% 29.83 in 6.2 mi Calm Calm - N/A   Mostly Cloudy
7:00 AM 82.4 °F 92.4 °F 78.8 °F 89% 29.86 in 6.2 mi WSW 2.3 mph - N/A   Scattered Clouds
8:00 AM 86.0 °F 101.9 °F 80.6 °F 84% 29.86 in 6.2 mi Calm Calm - N/A   Scattered Clouds
9:00 AM 87 °F - 82 °F 83% 29.88 in 22 mi Calm Calm - -   Mostly Cloudy
9:00 AM 87.8 °F 108.2 °F 82.4 °F 84% 29.86 in 6.2 mi Calm Calm - N/A   Mostly Cloudy
10:00 AM 89.6 °F 111.1 °F 82.4 °F 79% 29.86 in 6.2 mi ENE 2.3 mph - N/A   Mostly Cloudy
11:00 AM 89.6 °F 111.1 °F 82.4 °F 79% 29.83 in 6.2 mi ENE 2.3 mph - N/A   Scattered Clouds
12:00 PM 89.6 °F 115.0 °F 84.2 °F 84% 29.83 in 6.2 mi ENE 6.9 mph - N/A   Scattered Clouds
1:00 PM 89.6 °F 111.1 °F 82.4 °F 79% 29.80 in 6.2 mi East 9.2 mph - N/A   Partly Cloudy
2:00 PM 89.6 °F 115.0 °F 84.2 °F 84% 29.77 in 6.2 mi ENE 9.2 mph - N/A   Partly Cloudy
3:00 PM 90 °F - 83 °F 75% 29.77 in 16 mi ENE 9.2 mph - -   Scattered Clouds
3:00 PM 89.6 °F 111.1 °F 82.4 °F 79% 29.77 in 6.2 mi ENE 9.2 mph - N/A   Scattered Clouds
4:00 PM 89.6 °F 111.1 °F 82.4 °F 79% 29.74 in 6.2 mi ENE 9.2 mph - N/A   Scattered Clouds
5:00 PM 87.8 °F 108.2 °F 82.4 °F 84% 29.77 in 6.2 mi ENE 9.2 mph - N/A   Mostly Cloudy
6:00 PM 82.4 °F 88.2 °F 73.4 °F 74% 29.86 in 5.0 mi SW 18.4 mph - N/A Thunderstorm Light Thunderstorm
7:00 PM 78.8 °F - 73.4 °F 83% 29.86 in 5.0 mi SW 11.5 mph - N/A Thunderstorm Light Thunderstorm
8:00 PM 77.0 °F - 73.4 °F 89% 29.89 in 6.2 mi West 9.2 mph - N/A Thunderstorm Mostly Cloudy
9:00 PM 77 °F - 74 °F 87% 29.89 in 9 mi SSW 6.9 mph - -   Mostly Cloudy
9:00 PM 77.0 °F - 73.4 °F 89% 29.89 in 6.2 mi SSW 6.9 mph - N/A Thunderstorm Scattered Clouds
10:00 PM 77.0 °F - 73.4 °F 89% 29.89 in 6.2 mi SSW 4.6 mph - N/A Thunderstorm Scattered Clouds